Portada
METAR-TAF:

METAR-TAF

Aeropuertos :

Birjand, Irán

latitud: 32-52N, longitud: 059-12E, altitud: 1491 m

Observación

El informe se hizo hace 48 minutos, a las 22:00 UTC
Viento 4 kt del noreste
Temperatura 4°C
Humedad 93%
Presión 1018 hPa
Visibilidad 10 km o más
sin nubes por debajo de 1500 m y sin presencia de cumulonimbus.

METAR: OIMB 312200Z 05004KT CAVOK 04/03 Q1018

Hora: 03:18 (22:48 UTC)


TAF: falta

Observaciones y pronósticos meteorológicos de más de 4000 aeropuertos (mensajes METAR y TAF).

Los puntos amarillos y rojos representan las estaciones disponibles.

Ponga el ratón en el punto deseado para ver el nombre de la estación.

Haga clic para ver las observaciones y los pronósticos meteorológicos.

Para cambiar el mapa : haga clic en los botones verdes con una cruz de color negro para hacer un zoom, en el botón verde con un guión para alejar o en las flechas verdes para mapas adyacentes.


METAR-TAF: